Pompano Beach, FL

10:21 PM EDT on October 23, 2017 (GMT -0400)
Pompano Beach

Weather History for KPMP - July, 2013

Change the Weather History Date:

Friday, July 26, 2013

  Actual Average Record
Temperature  
Mean Temperature 88 °F -  
Max Temperature 93 °F 91 °F 98 °F (1983)
Min Temperature 82 °F 74 °F 64 °F (1977)
Cooling Degree Days 22    
Growing Degree Days 38 (Base 50)    
Moisture  
Dew Point 73 °F    
Average Humidity 59    
Maximum Humidity 77    
Minimum Humidity 49    
Precipitation  
Precipitation 2.12 in - - ()
Sea Level Pressure  
Sea Level Pressure 30.01 in    
Wind  
Wind Speed 9 mph (WSW)    
Max Wind Speed 15 mph    
Max Gust Speed 18 mph    
Visibility 9 miles    
Events Rain , Thunderstorm    
Averages and records for this station are not official NWS values.
T = Trace of Precipitation, MM = Missing Value Source: NWS Daily Summary

Daily Weather History Graph

Daily Weather History Graph

Search for Another Location

Airport or City:

Trip Planner

Search our weather history database for the weather conditions in past years. The results will help you decide how hot, cold, wet, or windy it might be!

Date:

Astronomy

Jul. 26, 2013 Rise Set
Actual Time 6:43 AM EDT 8:10 PM EDT
Civil Twilight 6:17 AM EDT 8:35 PM EDT
Nautical Twilight 5:47 AM EDT 9:05 PM EDT
Astronomical Twilight 5:16 AM EDT 9:36 PM EDT
Moon 10:58 PM EDT (7/26) 10:45 AM EDT (7/26)
Length of Visible Light 14h 17m
Length of Day
13h 27m
Waning Gibbous, 80% of the Moon is Illuminated
Jul 26
Waning Gibbous
Jul 29
Last Quarter
Aug 6
New
Aug 14
First Quarter
Aug 20
Full

Hourly Weather History & Observations

Time (EDT) Temp. Heat Index Dew Point Humidity Pressure Visibility Wind Dir Wind Speed Gust Speed Precip Events Conditions
12:53 AM 86.0 °F 93.8 °F 73.9 °F 67% 30.03 in 10.0 mi WSW 5.8 mph - N/A   Unknown
1:53 AM 84.0 °F 91.9 °F 75.0 °F 74% 30.03 in 10.0 mi West 5.8 mph - N/A   Unknown
2:53 AM 84.0 °F 91.9 °F 75.0 °F 74% 30.00 in 10.0 mi North - - N/A   Unknown
3:53 AM - - - N/A% 30.00 in 10.0 mi North - - N/A   Unknown
4:53 AM - - - N/A% 30.00 in 10.0 mi North - - N/A   Unknown
5:53 AM - - - N/A% 30.01 in 10.0 mi WSW 6.9 mph - N/A   Unknown
6:53 AM - - - N/A% 30.02 in 10.0 mi WSW 3.5 mph - N/A   Unknown
7:53 AM - - - N/A% 30.03 in 10.0 mi North - - N/A   Unknown
8:53 AM 82.9 °F 90.2 °F 75.0 °F 77% 30.04 in 10.0 mi North - - N/A   Unknown
9:53 AM 84.0 °F 91.9 °F 75.0 °F 74% 30.04 in 10.0 mi West 11.5 mph 18.4 mph N/A   Mostly Cloudy
10:53 AM 84.0 °F 91.9 °F 75.0 °F 74% 30.03 in 10.0 mi West 11.5 mph - N/A   Mostly Cloudy
11:53 AM - - - N/A% 30.03 in 10.0 mi West 11.5 mph - N/A   Mostly Cloudy
12:53 PM - - - N/A% 30.02 in 10.0 mi West 15.0 mph - N/A   Scattered Clouds
1:53 PM - - - N/A% 30.01 in 10.0 mi West 11.5 mph - N/A   Mostly Cloudy
2:53 PM - - - N/A% 30.00 in 10.0 mi West 11.5 mph - N/A   Mostly Cloudy
3:53 PM 84.0 °F 91.9 °F 75.0 °F 74% 29.97 in 10.0 mi West 15.0 mph - N/A   Mostly Cloudy
4:53 PM 93.9 °F 102.1 °F 72.0 °F 49% 29.96 in 10.0 mi West 11.5 mph - N/A   Mostly Cloudy
5:53 PM 93.9 °F 102.1 °F 72.0 °F 49% 29.95 in 10.0 mi SSE 13.8 mph - N/A   Mostly Cloudy
6:32 PM 93.2 °F 100.5 °F 71.6 °F 49% 29.97 in 10.0 mi South 11.5 mph - N/A Rain , Thunderstorm Thunderstorms and Rain
6:48 PM 93.2 °F 100.5 °F 71.6 °F 49% 30.00 in 2.0 mi South 11.5 mph - N/A Rain , Thunderstorm Thunderstorms and Rain
6:53 PM 93.9 °F 102.1 °F 72.0 °F 49% 30.00 in 2.5 mi South 11.5 mph - N/A Rain , Thunderstorm Thunderstorms and Rain
7:44 PM 93.2 °F 100.5 °F 71.6 °F 49% 29.99 in 6.0 mi WSW 11.5 mph - N/A Rain , Thunderstorm Thunderstorms and Rain
7:53 PM 93.9 °F 102.1 °F 72.0 °F 49% 29.99 in 10.0 mi WSW 11.5 mph - N/A Rain Light Rain
8:53 PM 93.9 °F 102.1 °F 72.0 °F 49% 30.01 in 10.0 mi WSW 4.6 mph - 0.32 in Rain Light Rain
9:53 PM 93.9 °F 102.1 °F 72.0 °F 49% - 10.0 mi WNW 3.5 mph - 0.60 in   Unknown
10:53 PM - - - N/A% - 10.0 mi Calm Calm - 0.60 in   Unknown
11:53 PM 93.9 °F 102.1 °F 72.0 °F 49% - 10.0 mi North - - 0.60 in   Unknown